Simultaneous Nadir Overpasses (SNOs) Predictions

Prediction of SNOs between AQUA and NOAA-19 Satellite Orbit:

Table of predicted SNOs for the next 14.0 days since TLE Epoch: 6/8/2024
Index Date (AQUA) Time (AQUA) Lat,Lon (AQUA) SZA (AQUA ) Date (NOAA-19) Time (NOAA-19) Lat,Lon (NOAA-19) SZA (NOAA-19 ) Distance(km) Time Diff (sec)
1 06/08/2024 06:11:14 75.72, 84.75 52.76 06/08/2024 06:10:35 75.74, 84.76 52.79 2.65 39
2 06/08/2024 07:00:36 -75.78,-107.75 127.19 06/08/2024 07:01:37 -75.79,-107.85 127.18 3.16 61
3 06/10/2024 10:01:16 -75.74,-152.76 127.40 06/10/2024 10:00:36 -75.74,-152.69 127.39 2.06 40
4 06/10/2024 10:50:40 75.79, 14.74 52.65 06/10/2024 10:51:30 75.81, 14.80 52.68 2.89 50
5 06/12/2024 13:51:18 75.71, -30.16 52.44 06/12/2024 13:50:30 75.73, -30.17 52.46 1.91 48
6 06/12/2024 14:40:41 -75.81, 137.21 127.46 06/12/2024 14:41:31 -75.78, 137.24 127.50 3.54 50
7 06/14/2024 17:41:18 -75.74, 92.30 127.64 06/14/2024 17:40:30 -75.71, 92.32 127.67 3.40 48
8 06/14/2024 18:30:42 75.80,-100.23 52.43 06/14/2024 18:31:25 75.77,-100.20 52.40 3.46 43
9 06/16/2024 21:31:17 75.70,-145.03 52.25 06/16/2024 21:30:24 75.71,-145.09 52.27 2.34 53
10 06/16/2024 22:20:40 -75.79, 22.36 127.66 06/16/2024 22:21:24 -75.76, 22.33 127.69 2.85 44
11 06/19/2024 01:21:14 -75.69, -22.46 127.81 06/19/2024 01:20:22 -75.72, -22.51 127.77 3.32 52
12 06/19/2024 02:10:38 75.76, 144.98 52.27 06/19/2024 02:11:18 75.78, 144.97 52.29 2.00 40
13 06/21/2024 05:11:12 75.73, 99.97 52.23 06/21/2024 05:10:17 75.70, 100.01 52.21 3.10 55



Historial Predications of SNOs between AQUA and NOAA-19
